MONITOR-4 (RS57S)

Last updated on Thu Nov 21 2024 00:03:02 GMT+0000 (Coordinated Universal Time)

1 57182U 23091S 24325.61178791 .00014030 00000+0 78975-3 0 9990 2 57182 97.5926 16.8729 0014900 303.9739 56.0075 15.13259392 77113
UTC large
Height (km)
Speed (km/s)
/
Latitude / Longitude
Inclination (degrees)
Orbital Period (minutes)
Azimuth
Elevation
Range (km)
Doppler Factor

Next 0 passes for location: London (51.5072 / 0.1276)

Sorry there are no passes over London.